This is the latest recevied weather packets stored in our database for station/object W4JCW. If no packets are shown the sender has not sent any weather packets the latest 10 day(s).
| Time | Temp. | Humidity | Pressure | Rain* | Wind** | Luminosity | Snow |
|---|---|---|---|---|---|---|---|
| 1778004627 | 26.67° C | 45% | 1014.6 hPa | 0 mm | - | 1086 W/m² | - |
| 1778004322 | 26.11° C | 44% | 1014.5 hPa | 0 mm | - | 447 W/m² | - |
| 1778004020 | 26.67° C | 43% | 1014.5 hPa | 0 mm | - | 378 W/m² | - |
| 1778003715 | 27.22° C | 43% | 1014.6 hPa | 0 mm | - | 591 W/m² | - |
| 1778003412 | 26.67° C | 43% | 1014.8 hPa | 0 mm | - | 1087 W/m² | - |
| 1778003109 | 26.67° C | 44% | 1014.4 hPa | 0 mm | - | 1006 W/m² | - |
| 1778002805 | 26.67° C | 44% | 1014.7 hPa | 0 mm | - | 592 W/m² | - |
| 1778002501 | 26.11° C | 44% | 1014.9 hPa | 0 mm | - | 785 W/m² | - |
| 1778002198 | 25.56° C | 45% | 1014.9 hPa | 0 mm | - | 926 W/m² | - |
| 1778001897 | 25.56° C | 49% | 1014.8 hPa | 0 mm | - | 478 W/m² | - |
| 1778001597 | 25.56° C | 49% | 1015 hPa | 0 mm | - | 264 W/m² | - |
| 1778001293 | 25.56° C | 48% | 1015.1 hPa | 0 mm | - | 205 W/m² | - |
| 1778000990 | 26.11° C | 46% | 1015.2 hPa | 0 mm | - | 169 W/m² | - |
| 1778000687 | 25.56° C | 48% | 1015.2 hPa | 0 mm | - | 166 W/m² | - |
| 1778000382 | 25.56° C | 47% | 1015.2 hPa | 0 mm | - | 328 W/m² | - |
| 1778000078 | 25.56° C | 48% | 1015.4 hPa | 0 mm | - | 285 W/m² | - |
| 1777999774 | 26.11° C | 46% | 1015.3 hPa | 0 mm | - | 272 W/m² | - |
| 1777999471 | 26.11° C | 46% | 1015.4 hPa | 0 mm | - | 213 W/m² | - |
| 1777999169 | 26.11° C | 47% | 1015.5 hPa | 0 mm | - | 332 W/m² | - |
| 1777998867 | 25.56° C | 47% | 1015.4 hPa | 0 mm | - | 134 W/m² | - |
| 1777998566 | 25.56° C | 47% | 1015.8 hPa | 0 mm | - | 166 W/m² | - |
| 1777998261 | 25.56° C | 48% | 1015.8 hPa | 0 mm | - | 114 W/m² | - |
| 1777997958 | 25.56° C | 50% | 1016.1 hPa | 0 mm | - | 137 W/m² | - |
| 1777997655 | 25.56° C | 49% | 1016 hPa | 0 mm | - | 162 W/m² | - |
| 1777997353 | 25.56° C | 49% | 1016 hPa | 0 mm | - | 866 W/m² | - |
* Rain latest hour (hover to see other rain measurements)
** Current wind speed in m/s (hover to see current wind gust speed)